Precipitable_Water
0.29 0.17 0.15 0.14 0.16 0.22 0.28 0.33 0.35 0.39 0.42 0.43 0.44 0.42 0.40 0.42 0.44 0.49 0.53 0.60 0.69 0.67 0.67 0.71 0.76 0.80 0.83 0.87 0.95 1.05 1.15 1.14 1.13 1.12 1.14 1.17 1.17 1.16 1.17 1.16 1.18 1.19 1.13 1.22 1.28 1.29 1.26 1.28 1.33 1.36 1.41 1.44 1.47 1.48 1.49 1.44 1.39 1.38 1.36 1.37 1.33 1.39 1.43 1.39 1.35 1.33 1.29 1.23 1.22 1.24 1.21 1.16 1.26 1.35 1.41 1.43 1.47 1.52 1.54 1.56 1.57 1.56 1.57 1.55 1.53 1.52
0.29 0.17 0.15 0.15 0.17 0.23 0.29 0.37 0.39 0.39 0.41 0.40 0.39 0.39 0.39 0.42 0.39 0.47 0.50 0.60 0.65 0.61 0.62 0.72 0.74 0.77 0.80 0.87 0.92 1.04 1.07 1.04 1.06 1.08 1.10 1.13 1.15 1.15 1.14 1.13 1.16 1.19 1.24 1.29 1.29 1.31 1.30 1.28 1.29 1.33 1.36 1.41 1.38 1.41 1.43 1.39 1.37 1.37 1.38 1.34 1.34 1.40 1.40 1.37 1.32 1.27 1.25 1.22 1.16 1.13 1.13 1.18 1.25 1.32 1.34 1.33 1.39 1.43 1.49 1.53 1.55 1.54 1.54 1.53 1.51 1.50
0.22 0.16 0.14 0.17 0.24 0.28 0.32 0.37 0.39 0.37 0.35 0.38 0.37 0.37 0.36 0.37 0.42 0.51 0.53 0.60 0.61 0.58 0.55 0.67 0.67 0.72 0.76 0.83 0.92 0.97 0.98 1.01 1.06 1.06 1.06 1.10 1.13 1.14 1.15 1.13 1.16 1.19 1.20 1.25 1.26 1.27 1.28 1.27 1.27 1.28 1.30 1.35 1.40 1.41 1.40 1.40 1.39 1.39 1.38 1.37 1.38 1.38 1.35 1.33 1.34 1.31 1.22 1.23 1.24 1.23 1.22 1.23 1.25 1.38 1.41 1.39 1.43 1.47 1.45 1.49 1.53 1.54 1.52 1.51 1.49 1.49
0.20 0.19 0.19 0.24 0.28 0.29 0.31 0.34 0.35 0.35 0.35 0.34 0.35 0.34 0.30 0.35 0.37 0.36 0.47 0.57 0.60 0.55 0.52 0.60 0.60 0.67 0.77 0.84 0.88 0.94 0.96 0.99 1.07 1.10 1.10 1.12 1.10 1.09 1.11 1.12 1.12 1.13 1.15 1.16 1.19 1.22 1.26 1.29 1.29 1.27 1.26 1.29 1.35 1.40 1.42 1.42 1.38 1.37 1.36 1.37 1.37 1.36 1.35 1.34 1.34 1.31 1.30 1.28 1.27 1.31 1.33 1.33 1.32 1.29 1.40 1.45 1.47 1.46 1.45 1.43 1.50 1.52 1.53 1.51 1.49 1.49
0.21 0.25 0.29 0.30 0.30 0.30 0.27 0.29 0.30 0.30 0.27 0.31 0.32 0.32 0.31 0.34 0.36 0.37 0.42 0.50 0.55 0.54 0.55 0.53 0.53 0.58 0.68 0.73 0.80 0.89 0.99 1.00 1.05 1.10 1.14 1.17 1.15 1.13 1.17 1.20 1.19 1.13 1.11 1.14 1.19 1.23 1.26 1.27 1.28 1.25 1.23 1.28 1.28 1.31 1.35 1.39 1.39 1.36 1.32 1.34 1.35 1.34 1.34 1.34 1.34 1.34 1.35 1.33 1.30 1.31 1.36 1.41 1.37 1.41 1.41 1.40 1.36 1.39 1.38 1.39 1.42 1.44 1.52 1.52 1.50 1.49
0.29 0.32 0.36 0.28 0.28 0.30 0.29 0.27 0.28 0.28 0.25 0.26 0.30 0.31 0.30 0.35 0.36 0.39 0.45 0.45 0.43 0.43 0.49 0.48 0.39 0.41 0.57 0.66 0.67 0.76 0.89 0.93 1.02 1.03 1.04 1.08 1.12 1.19 1.18 1.17 1.21 1.23 1.21 1.17 1.16 1.19 1.22 1.24 1.29 1.33 1.30 1.24 1.23 1.24 1.31 1.39 1.41 1.40 1.36 1.36 1.36 1.37 1.37 1.35 1.36 1.37 1.35 1.27 1.19 1.16 1.16 1.15 1.18 1.16 1.20 1.19 1.19 1.23 1.25 1.24 1.36 1.47 1.52 1.52 1.51 1.51
0.30 0.35 0.36 0.31 0.27 0.27 0.27 0.25 0.26 0.28 0.23 0.22 0.21 0.30 0.31 0.34 0.36 0.39 0.41 0.42 0.37 0.34 0.45 0.51 0.36 0.33 0.53 0.55 0.61 0.69 0.76 0.80 0.93 0.96 0.98 1.02 1.08 1.11 1.11 1.14 1.15 1.18 1.20 1.24 1.24 1.25 1.24 1.26 1.28 1.31 1.29 1.23 1.18 1.21 1.30 1.37 1.40 1.42 1.39 1.36 1.35 1.33 1.34 1.39 1.39 1.40 1.35 1.26 1.22 1.14 1.09 1.08 1.07 1.05 1.11 1.20 1.24 1.25 1.30 1.37 1.37 1.42 1.51 1.53 1.50 1.50
0.35 0.33 0.34 0.34 0.32 0.27 0.25 0.23 0.26 0.26 0.23 0.19 0.22 0.28 0.32 0.34 0.34 0.36 0.41 0.41 0.39 0.44 0.46 0.45 0.42 0.34 0.38 0.50 0.59 0.65 0.69 0.74 0.82 0.87 0.93 0.99 1.04 1.05 1.07 1.11 1.12 1.16 1.19 1.18 1.19 1.21 1.24 1.26 1.25 1.24 1.27 1.25 1.19 1.22 1.28 1.31 1.35 1.36 1.37 1.36 1.34 1.36 1.36 1.38 1.41 1.40 1.38 1.25 1.19 1.13 1.10 1.10 1.07 1.02 1.00 1.10 1.17 1.28 1.34 1.34 1.36 1.40 1.45 1.50 1.51 1.49
0.37 0.32 0.32 0.30 0.30 0.29 0.23 0.23 0.26 0.28 0.21 0.18 0.24 0.27 0.29 0.33 0.34 0.36 0.38 0.40 0.43 0.42 0.34 0.39 0.41 0.31 0.31 0.43 0.60 0.66 0.63 0.68 0.73 0.79 0.84 0.92 0.97 1.00 1.04 1.08 1.10 1.14 1.18 1.20 1.19 1.19 1.21 1.23 1.25 1.28 1.28 1.28 1.28 1.27 1.24 1.26 1.29 1.33 1.37 1.37 1.37 1.35 1.35 1.36 1.40 1.38 1.36 1.30 1.21 1.14 1.10 1.04 1.07 1.10 1.12 1.20 1.26 1.26 1.30 1.28 1.34 1.36 1.39 1.43 1.47 1.49
0.38 0.39 0.38 0.36 0.31 0.26 0.29 0.30 0.32 0.31 0.23 0.24 0.26 0.26 0.27 0.32 0.34 0.37 0.36 0.38 0.42 0.40 0.31 0.36 0.38 0.29 0.27 0.36 0.48 0.65 0.62 0.60 0.67 0.75 0.81 0.85 0.88 0.93 0.99 1.05 1.09 1.14 1.19 1.23 1.21 1.21 1.22 1.25 1.27 1.31 1.32 1.34 1.32 1.31 1.29 1.29 1.30 1.30 1.33 1.33 1.32 1.31 1.35 1.36 1.34 1.35 1.33 1.30 1.27 1.20 1.13 1.03 1.03 1.11 1.16 1.21 1.20 1.21 1.25 1.20 1.24 1.28 1.31 1.34 1.38 1.43
0.45 0.51 0.51 0.45 0.35 0.32 0.35 0.37 0.37 0.34 0.31 0.33 0.29 0.25 0.22 0.23 0.28 0.34 0.36 0.37 0.39 0.33 0.32 0.37 0.38 0.33 0.24 0.31 0.38 0.50 0.54 0.58 0.63 0.72 0.79 0.83 0.88 0.93 0.97 1.00 1.05 1.09 1.13 1.15 1.17 1.21 1.24 1.29 1.29 1.32 1.33 1.34 1.35 1.34 1.32 1.28 1.28 1.28 1.29 1.30 1.28 1.29 1.33 1.36 1.33 1.31 1.28 1.30 1.29 1.20 1.14 1.06 1.02 1.06 1.09 1.08 1.10 1.15 1.16 1.12 1.15 1.18 1.21 1.27 1.29 1.37
0.45 0.51 0.51 0.50 0.53 0.47 0.39 0.38 0.42 0.41 0.36 0.34 0.30 0.25 0.24 0.21 0.23 0.26 0.29 0.35 0.30 0.27 0.34 0.38 0.38 0.36 0.24 0.25 0.38 0.48 0.58 0.65 0.62 0.63 0.71 0.76 0.80 0.85 0.92 0.99 1.04 1.07 1.08 1.11 1.15 1.19 1.24 1.27 1.29 1.31 1.30 1.32 1.33 1.31 1.30 1.29 1.28 1.27 1.26 1.28 1.25 1.28 1.30 1.32 1.33 1.30 1.25 1.26 1.25 1.23 1.18 1.11 1.08 1.08 1.05 1.02 1.00 1.04 1.03 1.05 1.06 1.13 1.17 1.19 1.24 1.30
0.37 0.43 0.51 0.53 0.58 0.52 0.44 0.35 0.38 0.41 0.39 0.35 0.32 0.29 0.20 0.17 0.17 0.13 0.21 0.22 0.24 0.24 0.33 0.39 0.38 0.32 0.28 0.29 0.34 0.46 0.52 0.62 0.69 0.67 0.68 0.71 0.74 0.79 0.85 0.92 0.97 1.02 1.06 1.10 1.13 1.16 1.21 1.19 1.20 1.23 1.27 1.31 1.32 1.29 1.27 1.27 1.29 1.28 1.26 1.25 1.23 1.23 1.28 1.29 1.31 1.27 1.25 1.24 1.22 1.20 1.18 1.15 1.15 1.11 1.08 1.04 1.02 1.06 1.04 1.05 1.05 1.07 1.06 1.12 1.13 1.18
0.30 0.39 0.45 0.49 0.52 0.56 0.50 0.35 0.31 0.33 0.36 0.33 0.29 0.26 0.21 0.15 0.14 0.10 0.13 0.20 0.23 0.28 0.37 0.37 0.38 0.28 0.29 0.31 0.35 0.39 0.47 0.57 0.67 0.74 0.75 0.72 0.73 0.75 0.81 0.87 0.94 1.00 1.05 1.07 1.10 1.14 1.16 1.17 1.17 1.21 1.24 1.27 1.30 1.32 1.30 1.27 1.27 1.29 1.26 1.23 1.21 1.21 1.26 1.27 1.28 1.27 1.24 1.21 1.20 1.20 1.17 1.16 1.16 1.12 1.09 1.06 1.03 1.05 1.07 1.08 1.04 1.03 1.03 1.03 1.03 1.07
0.20 0.23 0.32 0.39 0.38 0.50 0.49 0.44 0.36 0.31 0.33 0.32 0.32 0.28 0.21 0.18 0.14 0.10 0.11 0.12 0.17 0.22 0.29 0.37 0.30 0.24 0.24 0.24 0.33 0.37 0.44 0.50 0.57 0.65 0.75 0.79 0.76 0.76 0.81 0.86 0.90 0.95 1.00 1.06 1.09 1.12 1.14 1.16 1.17 1.18 1.22 1.24 1.28 1.32 1.31 1.27 1.25 1.28 1.26 1.24 1.19 1.19 1.24 1.25 1.23 1.24 1.22 1.19 1.19 1.20 1.20 1.19 1.18 1.14 1.11 1.08 1.07 1.07 1.06 1.08 1.06 1.05 1.07 1.03 1.03 1.04
0.22 0.21 0.26 0.38 0.41 0.47 0.44 0.48 0.47 0.38 0.33 0.34 0.34 0.33 0.25 0.18 0.21 0.14 0.14 0.15 0.17 0.19 0.22 0.27 0.26 0.28 0.27 0.31 0.35 0.37 0.39 0.44 0.50 0.57 0.67 0.76 0.82 0.84 0.89 0.91 0.92 0.94 0.98 1.04 1.07 1.10 1.14 1.18 1.18 1.19 1.22 1.24 1.27 1.30 1.32 1.28 1.25 1.23 1.23 1.22 1.19 1.16 1.19 1.22 1.22 1.21 1.19 1.18 1.20 1.20 1.19 1.19 1.18 1.16 1.14 1.12 1.13 1.11 1.10 1.09 1.07 1.04 1.04 1.02 1.03 1.08
0.26 0.20 0.29 0.35 0.40 0.41 0.43 0.48 0.47 0.45 0.25 0.29 0.34 0.27 0.23 0.27 0.25 0.20 0.20 0.21 0.18 0.18 0.16 0.24 0.25 0.27 0.30 0.30 0.31 0.33 0.34 0.37 0.43 0.48 0.57 0.66 0.75 0.80 0.83 0.88 0.92 0.93 0.96 1.00 1.03 1.08 1.11 1.17 1.19 1.18 1.20 1.23 1.26 1.28 1.29 1.27 1.24 1.21 1.21 1.20 1.18 1.18 1.19 1.20 1.20 1.20 1.20 1.20 1.19 1.18 1.19 1.19 1.17 1.15 1.10 1.05 1.04 1.05 1.07 1.07 1.08 1.05 1.04 1.06 1.05 1.05
0.27 0.23 0.33 0.32 0.31 0.38 0.45 0.48 0.50 0.48 0.43 0.35 0.27 0.27 0.34 0.34 0.29 0.23 0.16 0.17 0.14 0.10 0.10 0.19 0.20 0.23 0.23 0.21 0.28 0.29 0.30 0.33 0.38 0.41 0.48 0.57 0.65 0.71 0.76 0.82 0.87 0.91 0.94 0.99 1.02 1.06 1.10 1.14 1.16 1.17 1.21 1.22 1.22 1.24 1.28 1.28 1.27 1.25 1.25 1.21 1.16 1.16 1.14 1.16 1.20 1.19 1.20 1.19 1.18 1.17 1.17 1.17 1.16 1.13 1.10 1.08 1.05 1.08 1.07 1.05 1.06 1.09 1.07 1.03 1.02 1.03
0.37 0.22 0.27 0.32 0.32 0.36 0.42 0.46 0.44 0.48 0.49 0.38 0.29 0.35 0.29 0.23 0.21 0.24 0.23 0.15 0.12 0.11 0.11 0.13 0.19 0.22 0.22 0.21 0.24 0.26 0.27 0.29 0.35 0.39 0.43 0.48 0.55 0.60 0.65 0.73 0.81 0.87 0.93 0.98 1.03 1.09 1.14 1.18 1.18 1.17 1.17 1.22 1.23 1.26 1.29 1.30 1.30 1.27 1.27 1.28 1.23 1.15 1.14 1.15 1.18 1.21 1.23 1.22 1.19 1.18 1.17 1.16 1.16 1.16 1.13 1.12 1.11 1.11 1.06 1.02 1.03 1.03 1.02 1.04 1.06 1.04
0.43 0.28 0.24 0.32 0.32 0.38 0.39 0.39 0.33 0.35 0.41 0.42 0.41 0.34 0.36 0.30 0.21 0.19 0.20 0.20 0.18 0.13 0.11 0.11 0.14 0.16 0.22 0.20 0.22 0.24 0.28 0.29 0.32 0.38 0.41 0.44 0.50 0.54 0.60 0.65 0.73 0.81 0.87 0.92 1.00 1.05 1.09 1.12 1.15 1.16 1.16 1.19 1.21 1.24 1.29 1.33 1.32 1.26 1.25 1.28 1.26 1.23 1.22 1.21 1.20 1.21 1.19 1.21 1.21 1.19 1.20 1.20 1.19 1.16 1.13 1.11 1.10 1.06 1.03 1.03 1.02 1.01 1.03 1.03 1.06 1.04
0.37 0.42 0.22 0.29 0.36 0.36 0.30 0.35 0.31 0.33 0.30 0.31 0.32 0.30 0.31 0.28 0.30 0.26 0.23 0.20 0.17 0.14 0.13 0.11 0.10 0.12 0.19 0.24 0.22 0.22 0.25 0.30 0.31 0.34 0.40 0.44 0.47 0.51 0.56 0.61 0.68 0.75 0.79 0.83 0.87 0.93 1.02 1.08 1.13 1.19 1.21 1.22 1.25 1.28 1.32 1.33 1.29 1.25 1.26 1.25 1.27 1.21 1.19 1.20 1.21 1.21 1.18 1.21 1.20 1.19 1.16 1.16 1.16 1.15 1.15 1.12 1.11 1.06 1.03 1.04 1.06 1.05 1.04 1.09 1.07 1.06
0.36 0.36 0.26 0.28 0.28 0.28 0.32 0.36 0.35 0.34 0.36 0.32 0.29 0.27 0.28 0.26 0.24 0.21 0.18 0.24 0.21 0.18 0.15 0.13 0.10 0.12 0.16 0.24 0.23 0.23 0.24 0.26 0.29 0.32 0.36 0.39 0.43 0.47 0.53 0.59 0.66 0.71 0.76 0.78 0.80 0.85 0.94 1.04 1.11 1.19 1.25 1.28 1.27 1.26 1.27 1.31 1.30 1.25 1.22 1.21 1.24 1.25 1.22 1.18 1.19 1.19 1.19 1.20 1.20 1.17 1.15 1.16 1.17 1.16 1.15 1.11 1.09 1.06 1.05 1.05 1.04 1.06 1.09 1.06 1.06 1.08
0.43 0.40 0.34 0.25 0.27 0.28 0.33 0.37 0.42 0.43 0.42 0.40 0.36 0.30 0.31 0.30 0.29 0.24 0.17 0.18 0.21 0.21 0.22 0.20 0.14 0.11 0.16 0.17 0.20 0.22 0.22 0.23 0.26 0.30 0.31 0.35 0.38 0.44 0.50 0.55 0.61 0.67 0.71 0.75 0.77 0.83 0.92 1.02 1.07 1.14 1.19 1.21 1.20 1.21 1.24 1.29 1.28 1.25 1.20 1.19 1.21 1.21 1.19 1.21 1.20 1.21 1.20 1.19 1.17 1.16 1.17 1.17 1.16 1.16 1.14 1.11 1.08 1.06 1.06 1.06 1.06 1.09 1.07 1.05 1.05 1.08
0.49 0.37 0.29 0.27 0.30 0.31 0.34 0.39 0.41 0.42 0.42 0.38 0.37 0.35 0.32 0.29 0.29 0.25 0.22 0.22 0.19 0.19 0.18 0.17 0.14 0.10 0.16 0.20 0.19 0.19 0.20 0.20 0.21 0.25 0.28 0.32 0.36 0.41 0.45 0.52 0.59 0.64 0.69 0.75 0.76 0.80 0.92 1.00 1.08 1.13 1.18 1.21 1.23 1.23 1.23 1.26 1.28 1.26 1.21 1.16 1.17 1.16 1.19 1.22 1.23 1.23 1.23 1.20 1.17 1.17 1.18 1.17 1.18 1.17 1.15 1.11 1.09 1.06 1.07 1.07 1.07 1.10 1.07 1.06 1.07 1.05
0.38 0.37 0.32 0.25 0.23 0.24 0.27 0.33 0.35 0.41 0.44 0.40 0.38 0.36 0.33 0.32 0.31 0.30 0.30 0.29 0.21 0.20 0.19 0.16 0.11 0.08 0.13 0.23 0.27 0.28 0.28 0.27 0.26 0.25 0.23 0.26 0.33 0.37 0.42 0.49 0.56 0.62 0.66 0.71 0.75 0.79 0.90 1.01 1.06 1.08 1.12 1.16 1.19 1.20 1.22 1.25 1.26 1.24 1.19 1.18 1.16 1.15 1.20 1.22 1.24 1.23 1.22 1.21 1.17 1.17 1.17 1.17 1.18 1.15 1.14 1.11 1.10 1.08 1.09 1.09 1.09 1.10 1.07 1.07 1.06 1.05
0.41 0.36 0.32 0.24 0.20 0.17 0.17 0.21 0.25 0.32 0.37 0.40 0.41 0.38 0.37 0.31 0.30 0.29 0.26 0.26 0.21 0.21 0.21 0.18 0.13 0.11 0.14 0.20 0.24 0.27 0.29 0.29 0.31 0.31 0.30 0.30 0.28 0.32 0.40 0.48 0.57 0.62 0.64 0.67 0.70 0.75 0.83 0.94 1.02 1.06 1.10 1.16 1.18 1.19 1.21 1.23 1.25 1.25 1.22 1.20 1.22 1.21 1.23 1.23 1.26 1.24 1.22 1.21 1.18 1.18 1.17 1.17 1.17 1.15 1.13 1.12 1.11 1.10 1.10 1.10 1.10 1.09 1.09 1.08 1.04 1.04
0.41 0.39 0.37 0.33 0.29 0.24 0.27 0.32 0.40 0.42 0.40 0.34 0.35 0.37 0.35 0.36 0.33 0.31 0.29 0.25 0.21 0.22 0.20 0.18 0.16 0.14 0.14 0.16 0.21 0.26 0.29 0.28 0.28 0.28 0.29 0.29 0.30 0.32 0.34 0.43 0.53 0.58 0.62 0.64 0.68 0.71 0.78 0.90 0.97 1.03 1.10 1.15 1.16 1.19 1.21 1.21 1.24 1.25 1.23 1.24 1.28 1.30 1.31 1.30 1.27 1.23 1.20 1.18 1.16 1.14 1.14 1.14 1.15 1.15 1.13 1.13 1.12 1.13 1.13 1.11 1.10 1.09 1.06 1.07 1.05 1.04
0.41 0.36 0.37 0.37 0.35 0.34 0.35 0.36 0.40 0.41 0.37 0.37 0.37 0.35 0.38 0.36 0.36 0.30 0.26 0.22 0.25 0.23 0.18 0.20 0.20 0.17 0.18 0.21 0.23 0.25 0.28 0.29 0.28 0.29 0.32 0.34 0.37 0.37 0.38 0.41 0.46 0.52 0.56 0.61 0.65 0.70 0.76 0.85 0.95 1.02 1.09 1.13 1.15 1.19 1.22 1.24 1.25 1.25 1.22 1.22 1.27 1.32 1.35 1.37 1.35 1.30 1.24 1.20 1.16 1.13 1.11 1.12 1.13 1.14 1.15 1.16 1.17 1.16 1.15 1.13 1.12 1.10 1.09 1.09 1.06 1.05
0.41 0.36 0.39 0.38 0.36 0.37 0.37 0.37 0.41 0.41 0.41 0.41 0.41 0.40 0.38 0.39 0.37 0.31 0.26 0.27 0.27 0.23 0.18 0.21 0.22 0.19 0.22 0.24 0.25 0.27 0.27 0.26 0.27 0.31 0.34 0.36 0.37 0.40 0.42 0.42 0.43 0.46 0.52 0.57 0.62 0.69 0.76 0.83 0.92 1.00 1.08 1.11 1.14 1.17 1.19 1.21 1.24 1.28 1.27 1.29 1.32 1.34 1.33 1.38 1.37 1.33 1.30 1.24 1.17 1.14 1.15 1.16 1.17 1.19 1.19 1.20 1.19 1.17 1.15 1.14 1.13 1.13 1.12 1.11 1.09 1.09
0.44 0.39 0.41 0.41 0.36 0.35 0.35 0.37 0.41 0.41 0.43 0.44 0.44 0.45 0.44 0.42 0.39 0.36 0.30 0.29 0.28 0.26 0.25 0.25 0.25 0.21 0.24 0.26 0.27 0.28 0.29 0.30 0.33 0.37 0.39 0.39 0.37 0.37 0.39 0.40 0.41 0.45 0.51 0.56 0.59 0.64 0.72 0.81 0.91 0.99 1.05 1.09 1.12 1.15 1.18 1.20 1.22 1.24 1.21 1.21 1.26 1.29 1.35 1.39 1.36 1.35 1.33 1.28 1.23 1.23 1.23 1.22 1.21 1.19 1.18 1.18 1.15 1.14 1.14 1.14 1.15 1.15 1.13 1.13 1.13 1.12
0.45 0.39 0.45 0.41 0.35 0.33 0.37 0.39 0.41 0.42 0.44 0.45 0.52 0.53 0.50 0.45 0.40 0.38 0.34 0.30 0.30 0.29 0.29 0.27 0.25 0.22 0.25 0.30 0.29 0.33 0.35 0.38 0.42 0.37 0.36 0.36 0.37 0.37 0.39 0.41 0.43 0.45 0.49 0.53 0.57 0.62 0.72 0.84 0.92 0.98 1.02 1.07 1.11 1.14 1.15 1.16 1.18 1.22 1.24 1.25 1.25 1.27 1.34 1.37 1.35 1.35 1.35 1.32 1.35 1.36 1.35 1.32 1.28 1.26 1.21 1.18 1.16 1.16 1.16 1.16 1.16 1.15 1.14 1.15 1.16 1.14
0.48 0.42 0.45 0.41 0.34 0.32 0.37 0.38 0.39 0.44 0.48 0.50 0.50 0.50 0.47 0.43 0.34 0.34 0.32 0.38 0.30 0.28 0.29 0.28 0.24 0.21 0.27 0.32 0.35 0.37 0.39 0.42 0.43 0.40 0.38 0.37 0.38 0.39 0.40 0.43 0.46 0.48 0.50 0.53 0.58 0.63 0.75 0.84 0.90 0.94 0.96 1.02 1.09 1.14 1.16 1.17 1.19 1.20 1.20 1.24 1.27 1.31 1.38 1.38 1.37 1.36 1.37 1.39 1.43 1.44 1.41 1.40 1.39 1.36 1.33 1.30 1.25 1.22 1.21 1.20 1.19 1.17 1.16 1.16 1.16 1.17
0.47 0.44 0.40 0.39 0.33 0.33 0.38 0.39 0.39 0.46 0.48 0.43 0.45 0.52 0.55 0.53 0.49 0.46 0.47 0.46 0.44 0.41 0.29 0.25 0.23 0.27 0.36 0.38 0.34 0.38 0.44 0.52 0.51 0.47 0.43 0.42 0.42 0.42 0.41 0.43 0.45 0.48 0.50 0.54 0.57 0.65 0.76 0.82 0.85 0.88 0.91 0.97 1.05 1.12 1.16 1.18 1.17 1.16 1.20 1.23 1.29 1.35 1.35 1.36 1.37 1.39 1.40 1.44 1.46 1.48 1.50 1.51 1.47 1.45 1.45 1.44 1.42 1.38 1.33 1.27 1.22 1.20 1.18 1.16 1.18 1.20
0.49 0.46 0.42 0.43 0.34 0.34 0.38 0.39 0.43 0.44 0.36 0.39 0.65 0.66 0.62 0.55 0.55 0.46 0.49 0.53 0.56 0.52 0.44 0.43 0.39 0.43 0.40 0.40 0.40 0.43 0.50 0.59 0.63 0.61 0.61 0.49 0.46 0.46 0.45 0.46 0.48 0.49 0.52 0.54 0.57 0.64 0.74 0.80 0.83 0.87 0.89 0.92 1.03 1.11 1.18 1.21 1.18 1.16 1.19 1.22 1.28 1.30 1.33 1.36 1.39 1.42 1.43 1.48 1.51 1.54 1.57 1.58 1.57 1.55 1.55 1.57 1.57 1.55 1.49 1.42 1.33 1.30 1.29 1.26 1.25 1.21
0.46 0.46 0.42 0.44 0.37 0.35 0.39 0.40 0.38 0.34 0.38 0.61 0.69 0.71 0.70 0.67 0.65 0.62 0.61 0.62 0.59 0.56 0.52 0.47 0.45 0.45 0.50 0.59 0.64 0.61 0.64 0.73 0.75 0.73 0.69 0.68 0.60 0.53 0.49 0.51 0.53 0.55 0.56 0.58 0.62 0.71 0.76 0.80 0.84 0.89 0.94 0.99 1.06 1.16 1.23 1.25 1.26 1.27 1.28 1.30 1.31 1.35 1.37 1.40 1.42 1.45 1.48 1.50 1.55 1.61 1.64 1.66 1.67 1.66 1.68 1.69 1.68 1.65 1.61 1.56 1.52 1.47 1.43 1.39 1.31 1.24
0.45 0.44 0.43 0.42 0.42 0.40 0.38 0.36 0.30 0.35 0.56 0.68 0.67 0.68 0.72 0.71 0.67 0.62 0.57 0.62 0.64 0.63 0.62 0.57 0.61 0.68 0.67 0.71 0.78 0.82 0.75 0.71 0.72 0.80 0.84 0.85 0.79 0.68 0.62 0.59 0.60 0.61 0.61 0.65 0.71 0.78 0.81 0.86 0.89 0.91 0.95 1.05 1.13 1.20 1.22 1.23 1.30 1.31 1.31 1.38 1.37 1.39 1.41 1.43 1.44 1.46 1.50 1.52 1.57 1.61 1.66 1.68 1.69 1.70 1.71 1.71 1.71 1.68 1.65 1.64 1.62 1.56 1.55 1.50 1.44 1.40
0.49 0.46 0.44 0.39 0.43 0.34 0.36 0.36 0.34 0.51 0.56 0.63 0.59 0.62 0.66 0.62 0.62 0.56 0.47 0.58 0.73 0.73 0.71 0.68 0.70 0.76 0.77 0.78 0.82 0.86 0.89 0.73 0.65 0.76 0.95 0.96 0.94 0.92 0.85 0.82 0.78 0.76 0.79 0.82 0.85 0.87 0.92 0.98 1.00 1.05 1.12 1.15 1.19 1.23 1.26 1.34 1.38 1.39 1.41 1.43 1.46 1.48 1.49 1.50 1.49 1.48 1.50 1.53 1.58 1.63 1.68 1.70 1.69 1.70 1.70 1.71 1.69 1.67 1.67 1.66 1.67 1.68 1.69 1.59 1.52 1.45
0.51 0.44 0.45 0.41 0.39 0.42 0.37 0.35 0.37 0.42 0.40 0.51 0.63 0.70 0.74 0.79 0.79 0.75 0.64 0.61 0.79 0.81 0.82 0.80 0.78 0.81 0.80 0.80 0.86 0.85 0.87 0.62 0.62 0.73 0.98 1.03 1.06 1.03 1.03 1.03 1.00 0.97 0.95 0.96 0.98 1.00 1.04 1.09 1.13 1.18 1.18 1.22 1.26 1.31 1.36 1.40 1.42 1.44 1.43 1.45 1.50 1.52 1.53 1.53 1.52 1.55 1.54 1.56 1.62 1.66 1.69 1.70 1.70 1.68 1.68 1.69 1.66 1.67 1.69 1.72 1.73 1.73 1.77 1.67 1.62 1.54
0.50 0.52 0.49 0.45 0.41 0.40 0.37 0.35 0.34 0.36 0.46 0.61 0.67 0.71 0.73 0.84 0.85 0.83 0.68 0.55 0.81 0.87 0.87 0.88 0.87 0.90 0.88 0.84 0.85 0.89 0.70 0.53 0.73 0.85 1.07 1.14 1.11 1.13 1.09 1.11 1.12 1.09 1.08 1.08 1.04 1.03 1.11 1.17 1.21 1.27 1.30 1.31 1.30 1.38 1.42 1.43 1.45 1.45 1.45 1.49 1.53 1.55 1.53 1.53 1.58 1.61 1.59 1.60 1.66 1.67 1.68 1.69 1.69 1.67 1.67 1.66 1.68 1.70 1.69 1.70 1.71 1.74 1.76 1.72 1.71 1.69
0.46 0.47 0.47 0.41 0.41 0.39 0.37 0.36 0.36 0.44 0.49 0.62 0.72 0.76 0.79 0.93 0.91 0.74 0.45 0.50 0.85 0.93 0.95 0.94 0.93 0.93 0.94 0.95 1.01 0.91 0.69 0.58 0.80 1.00 1.21 1.24 1.22 1.20 1.18 1.16 1.17 1.15 1.15 1.21 1.24 1.25 1.27 1.32 1.29 1.30 1.32 1.33 1.38 1.49 1.53 1.57 1.56 1.52 1.51 1.55 1.59 1.57 1.56 1.59 1.65 1.68 1.64 1.62 1.62 1.64 1.65 1.66 1.65 1.65 1.66 1.66 1.70 1.73 1.72 1.75 1.74 1.73 1.72 1.72 1.71 1.71
0.42 0.44 0.46 0.39 0.40 0.40 0.39 0.38 0.41 0.45 0.63 0.72 0.77 0.84 0.93 0.98 0.84 0.53 0.43 0.74 0.96 0.98 1.01 1.01 1.00 1.01 1.04 1.01 1.05 0.84 0.96 1.05 1.12 1.24 1.30 1.32 1.26 1.23 1.26 1.31 1.32 1.32 1.27 1.27 1.31 1.37 1.36 1.39 1.38 1.36 1.38 1.43 1.48 1.54 1.59 1.62 1.59 1.56 1.59 1.64 1.64 1.63 1.65 1.67 1.66 1.62 1.60 1.61 1.61 1.62 1.62 1.64 1.63 1.61 1.64 1.67 1.69 1.72 1.73 1.74 1.72 1.73 1.71 1.69 1.70 1.68
0.42 0.44 0.45 0.44 0.39 0.38 0.39 0.38 0.38 0.50 0.64 0.79 0.86 0.90 1.00 0.84 0.56 0.54 0.84 1.02 1.04 1.00 1.06 1.07 1.04 1.08 1.09 1.09 1.12 1.13 1.18 1.25 1.28 1.30 1.29 1.30 1.29 1.28 1.28 1.30 1.33 1.35 1.40 1.42 1.43 1.41 1.39 1.40 1.41 1.43 1.44 1.49 1.54 1.59 1.62 1.61 1.58 1.61 1.63 1.60 1.53 1.54 1.63 1.63 1.61 1.61 1.61 1.59 1.57 1.57 1.58 1.57 1.60 1.62 1.61 1.64 1.67 1.67 1.68 1.73 1.75 1.73 1.71 1.70 1.68 1.64
0.41 0.38 0.37 0.38 0.44 0.43 0.41 0.38 0.41 0.37 0.60 0.83 0.87 0.87 0.95 0.72 0.73 0.93 0.96 1.01 1.08 1.05 1.06 1.08 1.09 1.12 1.17 1.13 1.23 1.24 1.24 1.25 1.26 1.26 1.28 1.31 1.31 1.30 1.28 1.26 1.24 1.25 1.27 1.29 1.29 1.34 1.30 1.26 1.28 1.32 1.37 1.44 1.47 1.47 1.45 1.39 1.29 1.29 1.30 1.28 1.36 1.47 1.51 1.54 1.55 1.53 1.52 1.52 1.52 1.53 1.53 1.55 1.56 1.57 1.60 1.59 1.60 1.58 1.57 1.65 1.68 1.69 1.70 1.68 1.66 1.63
0.53 0.42 0.40 0.42 0.51 0.42 0.44 0.42 0.42 0.55 0.69 0.87 0.88 0.76 0.89 0.91 1.01 1.01 1.00 0.95 1.03 1.05 1.05 1.06 1.11 1.16 1.20 1.21 1.22 1.26 1.27 1.26 1.26 1.28 1.26 1.27 1.29 1.30 1.29 1.27 1.24 1.23 1.25 1.27 1.25 1.20 1.14 1.09 1.11 1.13 1.19 1.23 1.30 1.31 1.34 1.28 1.22 1.22 1.19 1.19 1.32 1.36 1.39 1.41 1.43 1.43 1.39 1.37 1.38 1.41 1.44 1.47 1.51 1.54 1.55 1.55 1.56 1.53 1.50 1.52 1.57 1.61 1.65 1.66 1.64 1.61
0.54 0.49 0.50 0.41 0.52 0.51 0.47 0.54 0.65 0.77 0.82 0.90 0.93 0.96 1.00 1.04 1.05 1.02 1.01 1.01 0.96 0.97 1.05 1.04 1.05 1.11 1.17 1.20 1.24 1.26 1.23 1.26 1.26 1.26 1.21 1.19 1.21 1.22 1.21 1.23 1.23 1.21 1.22 1.23 1.23 1.26 1.19 1.10 1.05 1.05 1.07 1.13 1.15 1.17 1.15 1.12 1.06 1.03 1.00 1.11 1.22 1.24 1.25 1.29 1.31 1.29 1.28 1.28 1.30 1.31 1.35 1.39 1.42 1.45 1.49 1.53 1.53 1.48 1.46 1.47 1.51 1.49 1.55 1.58 1.59 1.58
0.58 0.59 0.60 0.55 0.51 0.61 0.66 0.68 0.72 0.75 0.83 0.88 0.94 0.96 0.96 1.02 1.04 1.04 0.99 0.94 0.95 0.95 0.97 0.96 0.99 1.01 1.04 1.11 1.09 1.10 1.13 1.16 1.18 1.19 1.20 1.19 1.18 1.22 1.24 1.25 1.25 1.25 1.24 1.24 1.24 1.24 1.23 1.21 1.13 1.06 1.01 1.04 1.08 1.09 1.10 1.09 1.05 0.95 0.98 1.11 1.17 1.21 1.23 1.20 1.19 1.17 1.18 1.21 1.24 1.27 1.32 1.32 1.36 1.41 1.46 1.50 1.52 1.49 1.47 1.44 1.45 1.43 1.46 1.47 1.47 1.51
0.55 0.58 0.56 0.51 0.55 0.52 0.49 0.63 0.66 0.70 0.78 0.83 0.87 0.94 0.97 0.96 0.99 1.03 1.00 0.98 0.96 0.94 0.93 0.93 0.90 0.86 0.87 0.93 0.94 0.91 0.92 1.00 1.04 1.09 1.12 1.13 1.14 1.15 1.17 1.19 1.22 1.22 1.21 1.18 1.24 1.24 1.17 1.13 1.06 1.01 0.99 0.95 1.01 1.02 1.04 1.05 1.07 1.07 1.09 1.09 1.14 1.20 1.23 1.22 1.19 1.16 1.16 1.16 1.18 1.23 1.27 1.26 1.26 1.30 1.36 1.41 1.45 1.46 1.45 1.46 1.45 1.44 1.43 1.43 1.43 1.46
0.46 0.59 0.52 0.53 0.52 0.49 0.50 0.59 0.68 0.71 0.76 0.82 0.84 0.84 0.87 0.89 0.93 0.98 1.00 1.02 1.00 0.97 0.96 0.93 0.90 0.82 0.83 0.80 0.85 0.86 0.87 0.92 0.92 0.92 0.93 0.96 1.00 1.05 1.10 1.13 1.17 1.19 1.23 1.25 1.25 1.24 1.17 1.11 1.05 1.02 1.00 0.96 0.99 1.01 1.01 1.01 1.02 1.07 1.11 1.14 1.16 1.20 1.22 1.19 1.19 1.17 1.18 1.20 1.20 1.19 1.21 1.22 1.25 1.26 1.28 1.32 1.34 1.34 1.37 1.42 1.45 1.42 1.40 1.40 1.44 1.45
0.53 0.55 0.44 0.52 0.48 0.52 0.56 0.61 0.65 0.68 0.69 0.78 0.81 0.86 0.88 0.89 0.90 0.92 0.94 0.97 1.02 0.96 0.95 0.95 0.89 0.86 0.82 0.79 0.80 0.81 0.84 0.87 0.92 0.90 0.87 0.86 0.88 0.93 0.98 1.04 1.10 1.14 1.18 1.17 1.19 1.20 1.15 1.12 1.06 1.04 1.01 0.98 1.01 0.98 0.94 0.93 0.96 1.02 1.06 1.11 1.15 1.18 1.17 1.15 1.15 1.14 1.12 1.17 1.20 1.20 1.23 1.24 1.26 1.26 1.23 1.21 1.24 1.28 1.32 1.36 1.39 1.44 1.50 1.61 1.66 1.63
0.51 0.45 0.51 0.49 0.43 0.41 0.44 0.51 0.59 0.55 0.55 0.66 0.73 0.79 0.84 0.89 0.90 0.90 0.91 0.91 0.96 0.96 0.95 0.92 0.88 0.86 0.85 0.84 0.82 0.81 0.81 0.83 0.87 0.87 0.82 0.82 0.83 0.85 0.88 0.92 0.98 1.05 1.09 1.13 1.16 1.15 1.13 1.13 1.08 1.04 1.01 1.00 1.01 0.98 0.94 0.92 0.91 0.91 0.97 1.07 1.12 1.13 1.08 1.09 1.10 1.09 1.09 1.12 1.14 1.20 1.25 1.27 1.28 1.27 1.25 1.22 1.21 1.22 1.27 1.37 1.42 1.46 1.48 1.53 1.66 1.73
0.48 0.50 0.49 0.43 0.42 0.39 0.49 0.56 0.61 0.62 0.64 0.68 0.73 0.78 0.83 0.87 0.87 0.90 0.89 0.89 0.92 0.97 0.97 0.94 0.88 0.82 0.79 0.83 0.85 0.83 0.84 0.85 0.84 0.86 0.79 0.79 0.79 0.82 0.86 0.87 0.88 0.93 0.98 1.04 1.06 1.05 1.05 1.08 1.10 1.08 1.05 1.04 1.03 0.99 0.97 0.94 0.95 0.94 0.97 1.02 1.11 1.15 1.13 1.13 1.10 1.09 1.11 1.14 1.17 1.22 1.26 1.27 1.26 1.27 1.26 1.26 1.25 1.25 1.25 1.28 1.39 1.45 1.51 1.56 1.65 1.73
Wind_Speed
26 25 27 28 27 28 28 27 26 24 23 21 21 21 21 21 20 19 18 16 16 16 18 20 20 19 18 18 19 19 19 18 17 17 18 18 17 17 16 15 14 14 14 14 15 17 19 19 20 21 22 23 24 24 25 25 25 25 25 25 24 23 23 22 21 21 20 20 20 19 19 18 17 16 16 15 15 14 13 13 12 12 11 10 9 8
27 28 29 28 26 26 26 26 26 26 26 23 21 21 21 22 21 20 19 17 16 17 18 19 19 20 20 19 20 20 20 19 18 18 18 19 19 18 18 17 15 14 12 13 15 16 18 19 20 21 22 23 24 24 25 26 26 26 25 25 24 24 23 23 22 21 21 21 20 20 19 18 18 17 16 16 16 15 14 13 13 12 11 10 9 8
28 30 29 26 24 25 25 26 26 27 27 26 23 21 21 21 20 20 21 19 18 17 17 17 18 20 20 20 20 21 22 21 20 20 19 20 20 19 19 18 16 14 13 14 15 16 18 19 20 21 22 23 24 25 25 26 26 26 26 25 25 24 24 23 23 22 21 21 20 20 19 19 18 17 17 17 16 16 15 14 13 12 11 10 9 8
28 27 26 25 25 26 26 26 26 26 26 27 25 24 23 21 20 21 21 19 19 19 17 17 17 19 20 20 20 23 24 22 22 22 20 20 21 21 21 19 17 16 15 15 16 16 17 18 20 21 22 23 24 25 25 26 27 27 26 26 25 25 24 24 23 22 21 20 20 20 19 19 18 17 17 17 16 16 15 14 13 13 12 11 9 9
28 24 23 27 27 27 28 27 27 26 26 27 28 26 24 23 23 22 19 19 19 19 18 17 16 18 20 21 21 23 24 23 22 22 21 22 23 22 21 20 18 18 17 16 16 16 16 17 19 21 22 23 24 25 26 26 27 27 27 27 26 25 25 24 24 23 22 21 21 20 19 19 18 18 18 18 17 17 16 15 14 13 12 11 10 9
30 24 23 27 29 29 29 28 28 27 26 27 29 28 26 24 24 22 19 19 19 20 20 18 17 17 20 23 23 22 23 23 23 22 23 23 23 22 21 21 20 19 18 17 17 17 17 17 18 20 21 23 24 25 26 27 27 27 27 27 27 26 25 25 24 24 23 22 22 21 21 20 19 19 19 19 18 17 16 15 14 13 13 12 11 10
29 27 24 25 28 30 30 29 29 28 26 27 28 28 27 26 25 23 21 20 20 21 21 19 18 18 19 23 24 23 24 25 24 23 24 24 23 23 23 22 21 20 19 18 17 17 17 18 18 19 21 22 24 25 26 26 27 28 28 28 27 26 26 25 25 24 23 23 22 22 22 21 21 20 19 19 19 18 17 16 14 14 13 13 12 10
30 30 28 26 26 29 30 30 28 28 27 26 25 26 27 27 27 25 22 22 21 21 21 21 19 18 19 21 23 24 26 27 26 24 23 24 24 24 24 24 23 22 21 19 18 18 18 19 19 19 21 22 23 25 26 26 27 28 28 28 28 27 26 26 25 25 24 23 23 23 23 22 21 21 20 19 19 18 17 16 15 14 13 13 12 11
29 31 32 29 27 28 29 29 27 27 27 24 22 25 27 27 28 26 23 23 22 21 24 24 21 19 19 20 22 24 27 28 28 26 24 24 25 25 25 26 25 24 23 21 20 19 19 19 20 20 21 21 23 24 26 27 27 28 28 29 29 28 27 26 26 26 25 24 24 23 23 22 22 21 20 20 19 18 18 17 16 15 14 13 13 12
29 31 32 31 30 28 26 26 26 28 27 22 21 23 26 27 28 26 25 24 23 23 26 27 23 19 19 20 22 25 28 28 27 25 23 24 25 25 25 26 26 24 23 23 21 20 20 21 21 21 21 21 22 24 26 27 27 28 29 29 30 29 28 27 27 27 27 25 24 24 24 23 23 22 21 20 19 19 18 17 16 15 15 14 13 13
29 29 30 31 31 28 25 24 26 29 26 22 21 22 22 25 27 26 25 25 25 26 28 30 26 21 20 21 22 24 26 26 25 25 24 23 24 25 25 26 26 25 24 23 22 21 21 21 22 21 21 21 22 24 26 27 28 28 29 29 30 30 29 28 27 27 27 26 25 24 24 24 24 23 22 21 20 20 19 18 17 16 15 15 14 13
31 29 29 29 30 29 27 26 26 27 27 24 23 22 22 22 24 25 25 25 27 27 27 29 27 24 23 23 22 23 24 26 26 25 24 24 24 24 25 26 26 26 25 24 23 22 22 22 21 21 21 22 22 24 25 27 28 29 29 30 31 31 30 29 28 27 27 27 26 25 25 25 25 24 23 22 21 20 19 19 18 17 16 15 14 14
33 33 30 28 29 30 29 28 27 26 28 27 25 25 24 22 22 25 25 25 27 26 26 27 25 25 26 25 25 25 24 24 25 26 26 25 24 24 24 25 26 26 25 24 24 23 23 22 22 22 22 22 22 24 25 27 28 29 30 30 31 31 31 30 29 28 28 27 27 26 26 26 25 25 24 23 22 21 20 19 18 17 17 16 15 14
32 33 33 32 30 30 31 30 30 28 28 29 29 27 26 23 23 26 26 24 24 24 26 26 24 24 24 24 26 26 25 24 25 27 28 28 27 26 24 24 25 26 26 25 25 24 24 24 23 22 23 23 23 24 25 27 28 29 30 31 31 32 31 31 30 29 28 28 27 27 26 26 26 25 25 24 22 21 20 19 19 18 17 16 15 15
34 34 36 36 32 31 32 32 31 29 28 29 29 28 28 27 25 24 24 24 23 22 24 25 24 24 23 22 23 24 25 26 26 27 28 30 29 27 26 24 24 26 26 26 26 26 25 24 24 23 23 23 23 24 25 27 28 29 30 31 31 32 32 31 30 29 29 28 28 27 27 26 26 26 25 24 23 22 21 20 19 18 17 16 16 15
35 35 33 35 35 32 33 32 30 29 28 29 28 29 30 29 26 23 22 23 22 21 23 25 25 24 22 21 21 21 23 25 26 26 27 29 29 28 27 27 26 25 26 26 26 26 26 25 24 24 23 24 24 25 26 27 28 29 30 31 32 32 32 32 31 30 29 28 28 28 27 27 27 26 25 25 24 23 22 21 20 19 18 17 16 15
30 34 30 30 34 35 34 31 30 31 29 27 29 32 30 27 25 24 22 21 21 22 24 26 25 23 21 21 21 20 21 23 25 25 25 27 29 29 29 28 28 27 26 27 27 27 27 26 25 24 24 24 24 25 26 27 28 29 30 31 32 32 32 32 32 31 30 29 28 28 28 27 27 27 26 25 25 24 23 22 21 19 18 17 17 16
27 31 32 31 33 34 34 32 31 32 30 27 29 30 25 22 25 25 22 20 21 23 24 24 26 25 22 21 21 22 22 23 24 24 24 26 27 28 29 29 29 29 28 28 28 28 28 26 26 25 24 24 25 26 26 27 28 29 30 31 32 32 32 32 32 31 30 29 29 28 28 28 27 27 27 26 25 24 23 22 21 20 19 18 17 16
27 29 32 34 33 31 31 33 31 31 32 30 28 27 25 24 26 27 24 22 22 21 21 22 25 26 24 22 22 24 24 23 24 24 24 25 25 25 27 28 29 29 28 28 28 28 28 27 27 26 25 24 25 26 26 27 28 29 30 31 32 32 32 32 32 31 31 30 29 28 28 28 27 27 27 26 25 24 24 23 22 21 20 19 18 17
27 28 30 31 32 30 30 33 34 33 32 32 29 27 27 27 26 27 26 23 21 20 20 21 22 25 26 24 23 25 25 24 24 24 24 24 25 24 25 27 28 28 28 27 27 28 28 29 28 27 26 25 25 26 26 26 27 29 30 31 32 32 32 32 32 32 31 30 29 29 28 28 28 27 27 26 26 25 24 23 22 22 21 20 19 18
27 28 29 30 30 31 32 33 34 34 32 32 32 31 30 28 26 26 26 25 22 20 19 19 21 24 26 24 23 25 25 25 24 24 25 25 25 25 25 26 28 28 28 27 27 28 29 29 29 28 27 25 24 25 25 26 27 28 29 30 31 32 32 32 32 32 31 30 30 29 29 29 28 28 27 27 26 26 24 23 23 22 21 20 20 19
27 27 28 30 30 32 35 33 30 30 30 32 32 33 32 30 27 26 26 26 25 22 19 18 20 23 24 23 24 25 25 26 26 25 25 26 27 26 26 27 28 28 29 28 27 28 29 30 29 29 27 25 25 25 25 26 26 27 29 30 31 31 32 32 32 32 31 30 30 30 30 29 28 28 28 27 27 26 25 24 23 22 22 21 20 20
28 28 28 31 32 34 37 36 31 30 31 31 32 32 32 31 29 28 26 26 27 25 22 18 18 21 21 22 24 26 26 27 28 28 27 27 28 28 28 28 28 29 30 29 28 27 28 30 30 29 28 26 26 26 26 26 26 27 28 29 30 31 31 32 32 32 31 31 30 30 30 29 29 28 28 28 27 26 26 25 24 23 23 22 21 20
27 27 27 29 31 33 35 35 33 31 30 30 30 31 32 33 32 30 27 25 25 25 24 20 19 19 18 18 20 21 22 23 24 27 30 30 29 30 30 30 30 30 30 29 28 27 28 29 29 29 28 27 26 27 27 27 27 27 27 28 29 30 31 31 31 31 31 31 30 30 30 30 29 29 28 28 28 27 26 25 25 24 24 23 22 21
26 27 26 26 26 29 31 32 31 29 27 27 29 30 32 35 34 29 26 24 24 26 26 22 20 20 18 15 15 16 17 18 19 22 27 29 29 30 31 30 30 31 31 30 29 27 27 28 29 30 29 28 27 28 28 27 27 27 27 28 28 29 30 30 31 31 31 31 30 30 30 30 29 29 29 28 28 27 27 26 25 25 24 24 23 22
28 28 27 27 27 29 29 30 29 27 26 28 29 29 30 33 34 32 27 26 26 25 26 25 23 21 19 17 17 17 16 17 17 19 22 25 27 30 31 31 31 31 31 31 30 29 28 28 29 31 30 29 29 29 28 28 28 27 27 28 28 28 29 29 30 30 30 30 30 30 30 30 29 29 29 29 28 28 27 27 26 25 25 24 24 23
29 29 29 30 31 31 30 29 29 27 28 30 30 30 30 31 33 33 30 29 28 25 25 27 25 22 22 22 20 19 17 17 17 17 20 23 24 26 29 30 31 31 31 31 31 30 29 28 29 31 30 29 30 30 29 28 28 27 27 28 28 28 28 29 29 29 29 29 29 29 29 29 29 29 29 29 28 28 27 27 27 26 25 25 24 24
29 29 29 31 32 32 31 32 31 30 30 31 31 31 32 31 31 34 35 33 28 25 25 26 23 23 25 24 22 20 18 17 16 17 20 22 23 24 26 27 29 30 30 30 31 31 31 30 29 30 30 30 30 30 29 28 28 27 27 27 28 28 28 28 28 28 28 28 28 29 29 29 29 29 29 29 28 28 27 27 27 27 26 25 25 24
30 30 30 30 30 31 32 32 32 31 31 31 31 32 33 31 31 33 36 34 30 28 27 24 22 24 25 23 21 18 17 17 17 17 20 20 21 23 24 25 27 28 28 29 30 31 31 30 30 30 30 30 30 31 30 29 28 27 27 27 27 28 28 28 28 28 28 27 28 28 28 28 28 28 28 28 28 28 27 27 27 27 26 25 25 24
30 30 29 28 29 30 32 32 31 31 30 30 29 30 31 32 33 34 33 33 33 31 27 23 23 24 24 21 19 17 16 17 16 17 20 19 19 21 23 24 26 27 28 29 30 31 31 31 30 30 30 29 30 31 30 29 28 28 27 27 27 28 28 28 28 28 28 27 27 27 27 27 27 27 28 28 27 27 27 27 27 27 26 26 25 25
30 29 28 27 26 28 30 30 29 28 28 28 26 26 27 30 33 34 32 31 32 30 26 24 24 24 21 19 18 16 15 15 16 18 21 21 21 21 21 22 24 26 27 29 30 30 30 31 30 30 29 29 30 31 31 29 29 28 28 27 27 28 28 28 28 29 28 28 27 27 27 27 27 27 27 27 27 27 27 27 26 26 26 26 26 25
30 30 28 25 25 27 27 27 26 26 26 26 23 21 24 27 29 30 29 28 30 29 26 25 24 23 20 19 18 16 14 14 15 18 20 21 21 20 20 20 22 24 26 29 30 30 30 30 30 29 29 30 31 32 31 30 28 28 28 28 27 27 27 28 28 28 28 28 28 27 27 27 27 27 26 27 26 26 26 26 26 26 26 26 26 26
30 30 27 25 26 27 26 25 26 25 23 24 21 19 21 24 25 26 25 25 27 29 28 27 25 23 21 20 19 17 15 15 15 16 19 20 20 19 20 20 21 23 26 29 30 30 30 29 29 29 29 29 31 32 31 30 29 28 28 27 27 27 27 27 28 28 28 28 28 28 27 27 27 27 27 27 27 27 26 26 26 26 26 26 26 26
30 30 27 26 26 26 24 24 26 25 23 24 22 19 19 21 22 24 25 24 25 28 28 27 25 23 21 20 19 18 17 17 15 15 16 18 19 19 19 19 19 22 25 28 29 29 29 28 27 28 29 30 31 31 30 30 29 28 27 27 26 27 27 27 27 28 28 28 28 28 27 27 27 27 27 27 27 27 26 26 26 26 26 26 26 26
30 29 27 26 27 26 23 22 25 26 24 24 23 20 20 22 23 24 25 24 23 24 25 24 24 22 21 20 20 19 19 18 15 13 12 14 17 18 18 17 18 20 23 25 27 27 28 26 25 26 28 29 30 30 30 29 28 27 27 27 26 26 27 27 27 27 27 27 27 27 27 27 27 27 27 27 26 26 26 26 26 26 26 26 26 26
29 28 27 26 26 26 23 23 26 26 23 23 24 21 20 21 23 23 23 22 21 22 24 23 23 22 21 21 21 21 20 18 15 12 11 12 15 16 16 16 17 19 22 24 25 26 26 25 24 24 26 28 29 29 29 29 28 27 27 26 26 26 26 26 27 27 27 27 27 27 27 28 28 28 27 27 27 27 26 26 26 26 26 25 25 26
29 28 27 26 26 26 24 24 25 24 22 22 23 22 21 21 22 23 22 21 21 22 23 23 22 22 22 23 23 24 22 18 17 15 13 12 14 14 15 16 17 19 21 23 24 24 24 24 23 23 24 26 27 28 29 28 28 28 27 27 26 26 26 26 26 26 26 27 27 27 27 28 28 28 28 28 27 27 27 26 26 26 25 25 25 25
29 29 27 26 26 25 24 24 24 24 22 20 20 22 23 24 25 25 24 22 21 21 21 22 22 22 23 24 24 26 24 20 20 20 16 14 14 13 14 16 18 19 20 22 23 23 23 23 22 22 23 24 25 27 28 28 28 28 27 27 27 26 26 26 26 26 26 26 27 27 27 28 28 28 28 28 28 27 27 27 26 26 25 25 25 25
29 29 28 27 26 26 26 26 25 24 22 19 19 21 22 23 26 27 24 21 20 21 21 22 23 23 23 23 23 24 24 22 22 21 18 17 16 14 14 16 18 19 20 20 21 22 22 22 22 21 21 22 23 25 27 28 28 28 28 27 27 27 27 26 26 26 26 26 27 27 27 27 27 28 28 28 28 28 27 27 26 26 25 25 25 25
27 28 27 28 27 27 28 28 26 24 22 19 20 21 21 24 27 26 23 20 20 21 21 22 23 22 22 21 22 22 23 23 23 21 19 17 16 15 16 16 17 19 19 19 20 21 21 21 21 21 21 21 21 23 25 26 27 27 27 27 27 27 27 27 26 26 26 26 26 26 26 26 27 27 27 28 28 28 27 27 26 26 25 25 25 26
24 26 26 27 27 27 28 28 26 24 21 19 19 20 21 24 26 24 22 21 20 20 21 21 22 21 20 21 22 22 22 22 21 20 18 17 16 15 16 17 17 18 19 19 20 20 20 20 21 20 20 20 20 20 22 24 24 25 25 26 26 27 27 27 27 26 26 26 26 26 27 26 26 26 27 27 27 27 27 27 26 26 25 25 25 25
22 24 24 25 26 26 28 28 27 25 21 17 17 18 19 23 24 22 22 21 20 20 21 20 20 20 20 21 22 22 22 21 19 18 17 16 15 16 16 17 17 17 17 18 19 20 20 19 19 19 19 18 18 18 19 20 21 21 22 23 24 25 25 26 26 26 26 26 26 27 27 27 27 26 26 26 26 26 27 27 27 27 26 25 25 25
20 22 23 24 24 24 26 27 26 25 21 16 15 17 19 22 23 23 23 22 20 20 21 21 20 19 20 21 21 21 21 19 18 18 17 16 16 17 17 17 17 16 17 18 19 19 20 19 19 18 18 17 17 17 18 18 19 19 19 20 21 22 23 24 25 26 26 27 27 27 27 27 27 27 26 26 25 26 26 26 27 27 27 27 26 26
16 19 22 23 23 22 23 25 25 25 22 18 16 17 20 22 22 22 23 23 22 21 22 22 21 20 20 21 20 19 19 19 18 18 18 17 18 18 17 17 17 16 17 17 17 18 19 19 19 18 17 16 16 16 17 17 18 18 19 19 20 21 22 22 24 25 26 26 27 27 27 27 27 27 27 26 26 26 26 26 26 27 27 28 27 27
14 16 20 24 24 23 23 25 25 25 23 20 18 17 19 20 21 21 22 22 23 23 23 23 22 20 20 21 20 19 19 19 18 18 19 19 19 19 18 18 17 17 17 17 17 17 17 18 18 17 16 15 15 15 16 16 17 17 18 19 20 21 21 22 23 24 25 26 27 27 27 27 27 27 27 26 26 26 26 26 26 26 26 27 27 27
13 14 18 22 23 24 25 26 25 24 23 21 19 18 18 19 20 21 22 22 23 23 23 23 22 21 20 20 19 19 19 19 19 20 20 20 20 19 19 19 18 18 18 17 17 17 17 17 17 16 16 15 15 15 15 16 16 16 18 19 19 20 21 22 22 23 25 26 26 27 27 27 27 27 27 27 27 27 27 26 26 26 26 26 26 27
14 12 15 19 22 24 26 26 25 25 25 24 21 19 18 17 18 20 21 22 23 23 23 23 23 22 21 20 19 19 19 19 20 21 21 20 20 20 20 20 20 19 19 18 18 18 17 17 17 16 16 15 15 15 15 15 16 16 17 18 19 20 21 22 22 23 24 25 26 27 27 28 28 28 28 27 27 27 28 27 27 27 27 26 26 27
13 12 13 17 21 25 27 26 25 26 27 27 23 19 18 18 17 17 19 21 23 24 24 24 24 23 22 21 20 20 20 20 21 21 21 21 21 20 20 21 21 20 20 19 18 18 18 18 17 17 16 16 16 16 16 16 16 17 18 18 19 20 21 22 23 23 24 25 26 27 27 28 28 28 27 27 27 27 27 28 28 28 28 28 27 27
13 13 13 15 20 25 27 26 24 25 28 30 26 20 18 18 17 17 18 20 22 24 24 23 23 23 22 21 21 21 21 21 22 22 21 22 21 21 21 21 21 21 20 20 19 19 19 18 18 17 17 17 16 16 16 16 16 17 18 19 20 20 21 21 22 23 23 25 26 27 28 28 28 27 27 26 26 26 26 27 28 29 29 28 28 27
12 13 14 15 19 24 27 25 24 26 30 31 28 23 20 19 18 18 19 20 21 23 24 23 23 22 22 21 22 22 22 22 22 22 22 22 22 21 21 21 21 21 21 20 20 20 20 19 18 18 18 17 17 16 16 16 16 17 18 19 19 20 20 20 21 21 21 22 24 26 26 27 26 26 26 25 25 25 25 26 26 27 28 28 28 27
11 13 14 16 19 23 26 26 27 29 32 33 31 27 24 21 20 20 21 22 22 22 24 25 24 23 22 22 22 23 23 23 23 23 23 23 22 22 21 21 21 21 21 21 20 20 20 19 19 19 18 18 17 16 16 16 16 17 17 18 19 19 19 19 20 20 20 21 21 23 24 25 25 25 25 24 24 24 24 24 24 24 25 26 26 26
Wind_Direction
215 217 217 218 218 217 217 218 219 222 222 220 219 220 221 222 224 222 222 223 216 216 220 219 220 220 216 212 210 207 206 209 207 204 203 202 202 200 200 201 199 200 201 198 196 196 196 197 197 198 198 198 198 198 197 197 198 197 197 197 197 197 197 196 195 195 195 195 195 195 195 194 195 195 193 191 190 190 189 185 183 182 183 183 182 182
216 220 221 220 218 216 217 217 217 220 222 223 221 221 223 222 224 223 221 222 220 221 223 220 220 221 218 216 213 208 208 212 209 205 204 202 203 204 203 204 202 202 201 197 197 196 196 197 197 198 198 198 198 199 199 198 198 198 198 197 197 197 197 196 196 196 196 196 196 196 196 195 195 195 195 193 192 192 191 188 186 185 185 185 185 186
219 223 223 220 217 215 216 216 217 219 221 223 222 221 223 221 222 226 224 222 221 223 224 220 221 224 221 218 214 209 211 214 209 207 205 202 203 206 205 205 203 203 202 199 198 197 197 197 197 199 199 200 200 200 201 200 199 199 199 198 197 198 198 197 197 196 196 196 197 197 197 196 195 196 196 194 193 193 192 191 189 188 187 186 187 188
220 225 222 217 216 216 218 217 217 220 222 223 222 222 223 219 218 223 223 222 221 222 225 223 225 229 224 220 216 212 213 215 213 212 211 207 205 206 206 204 203 204 203 201 200 199 198 197 198 200 200 201 201 201 202 201 200 200 200 200 198 198 198 198 198 198 197 196 196 197 198 197 196 197 196 194 193 194 194 193 192 191 190 190 190 190
223 225 218 214 216 216 218 219 217 220 223 223 223 222 222 219 218 220 222 225 225 225 225 224 230 233 225 220 218 215 215 217 216 215 216 214 210 209 209 207 206 207 207 205 203 201 200 199 200 201 201 202 202 201 202 202 201 201 201 201 200 199 199 199 198 198 198 196 196 196 196 196 196 196 195 194 194 194 195 195 195 195 193 194 194 193
225 224 216 214 217 216 218 221 219 219 223 225 223 221 219 219 219 220 222 226 229 229 224 220 228 235 226 220 219 217 216 217 217 216 216 215 213 212 212 209 208 210 211 210 207 205 204 203 201 201 202 203 203 203 202 203 203 202 202 201 200 200 200 200 199 199 198 197 197 196 196 195 195 195 195 195 195 195 196 197 197 197 197 197 198 197
223 220 217 217 217 217 219 222 220 218 222 227 223 217 217 220 221 220 221 224 226 227 224 219 225 234 230 223 221 218 216 218 217 216 216 215 214 213 213 211 210 211 212 212 212 209 206 205 203 202 202 203 204 204 203 203 204 203 202 201 201 201 201 201 200 199 199 199 199 198 198 198 197 197 197 198 197 197 198 198 199 199 200 200 201 201
220 217 218 219 217 217 219 221 220 216 220 226 220 215 216 219 222 221 221 226 227 228 230 226 226 233 233 227 223 217 216 218 217 215 216 216 215 214 213 212 211 211 210 211 212 210 208 207 206 204 203 204 204 203 203 203 203 203 203 202 201 201 202 202 202 201 200 200 200 201 201 201 200 199 199 199 198 198 198 199 200 202 203 203 205 205
218 218 219 218 220 221 220 220 217 215 220 223 216 215 217 217 221 221 222 228 229 231 235 232 227 233 236 232 226 218 215 217 216 214 215 215 214 214 213 213 212 212 211 211 212 212 210 209 209 207 204 204 204 203 203 203 204 204 203 203 202 202 202 203 202 202 202 201 202 202 203 203 202 201 200 199 199 199 198 200 201 204 206 207 208 209
220 220 218 219 222 222 222 221 217 216 219 218 213 216 218 218 221 221 223 227 228 230 233 232 227 230 238 234 225 218 216 217 216 214 213 213 213 214 214 214 213 212 212 213 213 213 213 211 209 207 205 206 206 205 204 204 204 204 204 203 203 203 203 203 203 203 203 203 203 204 204 204 203 202 200 200 200 199 199 201 203 206 209 209 210 211
222 221 218 220 222 220 219 220 218 217 217 214 213 216 219 220 220 222 224 224 227 230 231 231 228 227 236 235 224 220 219 218 216 214 215 215 216 217 216 215 215 213 212 212 213 214 214 212 210 208 207 207 206 206 205 205 204 204 204 204 203 204 204 204 204 204 204 205 205 205 205 205 203 202 201 201 201 201 201 203 205 208 211 212 212 213
222 221 219 220 220 218 217 219 219 218 215 213 213 213 217 219 217 221 222 220 225 230 229 229 228 227 233 233 227 225 223 220 217 215 213 214 216 217 217 216 216 215 213 212 212 213 213 213 212 210 207 206 205 205 205 205 205 204 204 204 204 204 205 205 205 204 205 205 206 206 206 206 205 204 203 203 203 203 203 205 206 209 211 213 214 215
221 221 221 220 218 215 215 217 217 217 213 212 211 210 212 213 212 216 217 218 226 230 227 225 225 229 233 234 229 226 225 222 220 217 213 212 214 216 217 216 215 215 214 213 212 212 212 212 212 209 206 205 204 204 204 205 205 204 204 204 204 204 205 205 206 205 205 205 206 206 206 206 206 206 206 206 207 206 206 207 207 209 212 214 216 217
220 221 220 219 218 215 214 214 214 214 212 210 209 209 210 209 211 216 217 221 227 230 226 222 225 233 235 234 228 223 224 223 221 220 216 214 215 217 218 216 215 214 213 212 211 211 212 212 211 209 207 205 205 205 204 204 205 205 205 204 204 204 205 206 206 206 205 205 206 207 206 207 207 207 208 208 209 209 208 209 209 211 213 215 217 218
219 220 217 217 216 213 213 215 213 212 212 212 211 210 213 213 213 216 217 221 225 228 226 220 225 230 229 231 227 221 222 222 221 221 219 218 218 218 219 217 214 213 212 212 211 211 213 213 211 210 208 206 206 206 205 205 205 205 205 204 204 204 204 205 206 206 206 206 207 207 207 207 207 208 209 209 210 211 211 211 211 212 214 216 219 220
222 221 217 217 216 212 213 215 211 210 213 215 211 210 216 215 214 217 220 221 222 227 226 220 225 232 231 235 232 222 221 221 220 221 219 219 219 218 220 219 215 214 212 211 212 212 213 212 211 212 210 208 207 206 206 205 205 205 205 205 205 205 205 205 206 207 207 207 207 208 208 208 208 209 209 210 211 212 213 214 214 214 216 217 219 221
224 222 218 219 218 214 213 213 210 211 212 212 210 213 216 213 213 219 223 224 221 224 226 222 227 235 235 235 231 220 219 220 220 220 218 217 216 215 218 218 216 216 213 212 212 212 212 211 212 212 211 210 208 208 207 206 206 205 205 205 205 205 205 206 207 207 207 208 208 209 208 208 209 210 211 211 211 212 214 216 216 217 217 218 219 221
227 226 221 219 217 216 214 212 212 213 211 210 212 213 212 211 215 218 221 224 222 225 230 225 226 229 228 229 228 220 217 219 220 219 217 216 214 214 216 216 216 216 215 214 213 213 213 212 212 212 212 211 210 209 208 207 207 206 205 205 205 205 205 206 207 207 208 208 209 209 209 209 210 211 212 212 212 213 215 216 217 217 218 218 219 221
227 226 221 215 214 215 213 211 213 214 212 213 214 212 208 210 214 214 216 221 221 226 232 229 228 228 225 225 223 219 218 218 219 218 217 217 215 214 214 214 214 214 215 215 214 213 213 213 213 211 211 212 210 209 208 208 207 206 206 206 205 206 206 207 207 208 208 209 209 210 210 210 211 211 213 213 214 215 216 217 217 218 218 219 220 221
223 220 218 214 214 216 212 209 211 211 212 212 212 212 212 214 215 213 216 219 220 226 230 231 232 230 228 225 220 220 221 218 217 218 218 219 218 214 213 213 213 211 213 214 214 213 213 214 213 211 211 211 209 209 208 207 207 206 206 206 206 207 207 207 207 208 209 209 210 211 211 212 212 212 213 214 215 216 216 217 217 218 218 219 220 221
222 219 218 216 216 215 211 209 210 209 210 211 211 212 212 213 214 215 218 218 218 224 225 228 234 233 230 227 221 222 224 220 218 218 220 221 219 215 213 214 214 212 212 213 213 214 214 213 212 211 211 211 210 208 207 207 207 207 207 207 207 207 206 207 207 208 209 210 210 211 212 213 213 213 214 214 215 216 217 217 217 218 219 220 221 222
222 221 219 218 217 215 212 211 211 211 213 213 214 214 212 212 210 211 219 219 217 222 222 225 235 236 232 227 223 224 225 224 220 218 220 220 219 217 214 213 213 212 212 212 212 213 213 212 211 210 211 210 209 208 206 207 207 206 207 207 207 207 206 207 207 208 210 210 211 211 212 213 214 214 215 215 216 217 217 217 218 218 220 221 222 222
223 221 220 220 219 217 216 216 215 217 217 216 217 215 213 213 211 211 218 218 216 222 225 227 236 239 233 226 225 226 228 228 224 221 223 222 220 219 216 214 212 212 212 211 211 213 212 210 210 209 209 210 210 208 206 206 206 205 206 206 207 207 207 207 208 209 210 210 211 212 213 214 214 215 215 216 217 218 218 219 219 220 221 222 223 224
222 220 220 221 220 218 216 214 214 215 215 216 218 215 213 214 214 216 219 217 217 221 223 227 236 238 232 222 221 224 226 227 223 221 223 224 223 220 217 215 213 212 212 211 211 212 210 209 209 209 209 209 210 209 206 205 205 205 205 205 206 207 207 207 208 209 210 210 212 213 213 214 215 215 216 217 218 219 219 220 221 221 222 223 225 226
220 218 217 217 215 214 212 209 211 213 214 216 218 217 216 215 214 216 218 217 220 221 218 221 230 232 226 219 217 219 221 223 220 218 221 222 221 219 216 214 212 212 213 211 209 210 209 208 209 210 209 209 209 208 205 205 205 205 205 205 205 206 206 207 208 209 210 211 212 213 213 214 215 216 217 218 219 219 220 221 222 223 223 224 226 227
218 217 215 211 209 208 207 206 207 212 216 217 217 218 219 216 214 214 214 215 219 219 215 217 224 228 228 225 224 221 220 224 224 222 221 220 217 215 213 212 211 211 212 211 209 209 209 209 209 209 208 208 208 206 204 204 204 204 204 204 205 205 205 205 207 208 210 211 212 213 214 215 216 216 217 219 219 220 220 221 222 223 224 225 226 227
216 217 215 212 212 212 213 213 212 216 221 220 220 222 221 219 217 214 212 214 215 215 216 218 221 228 232 229 226 223 220 225 229 224 220 216 212 210 209 209 210 211 212 212 210 209 208 208 208 207 207 207 206 205 204 203 203 203 203 204 205 205 205 206 206 208 210 211 212 213 214 215 216 217 218 220 220 221 221 221 222 223 224 226 227 228
216 217 216 214 215 216 219 221 221 221 223 221 223 224 222 221 220 215 214 214 211 211 218 220 218 224 230 227 223 221 220 225 232 224 215 211 207 205 204 205 207 208 209 208 206 205 204 205 206 205 205 205 205 203 202 202 202 202 203 203 204 205 206 206 207 207 209 211 212 213 214 215 217 218 219 221 221 222 222 222 223 224 225 226 227 228
215 216 216 216 219 220 220 222 222 222 220 220 222 224 223 222 220 219 217 213 209 212 218 218 214 219 225 224 220 218 218 223 228 218 209 205 202 201 200 200 202 202 202 202 202 202 203 203 204 203 203 204 203 201 201 201 201 202 203 203 204 205 206 207 207 208 209 210 212 213 214 215 217 218 219 221 222 222 223 223 224 225 226 227 228 229
214 215 216 217 223 224 219 216 216 217 218 220 222 223 224 223 220 219 218 212 210 215 218 216 215 218 220 219 218 220 219 222 220 209 203 200 195 194 195 196 198 199 199 200 200 202 202 202 202 202 201 202 202 201 200 200 201 201 203 203 204 205 206 207 208 209 210 211 213 214 215 216 217 218 219 219 221 222 222 223 224 225 227 228 229 230
212 214 216 217 220 220 214 209 210 215 217 219 221 223 225 223 218 216 216 212 211 215 217 215 217 219 217 214 216 219 218 217 211 202 200 199 193 191 191 194 196 198 199 200 200 201 201 200 201 201 201 201 201 200 200 200 201 201 203 204 204 205 206 207 208 209 211 212 214 215 216 216 217 217 218 219 220 221 222 223 224 226 227 229 230 231
211 212 214 215 215 213 209 210 215 218 217 215 217 223 225 221 213 209 211 212 211 211 212 212 213 216 215 214 214 213 211 211 209 204 203 201 195 191 192 194 196 198 200 200 200 200 199 198 200 201 201 201 201 201 200 200 201 202 204 204 205 205 206 207 208 210 211 213 215 216 217 217 217 218 218 219 220 221 222 224 225 226 228 229 231 232
209 210 212 211 211 210 210 214 217 214 212 212 212 216 218 214 207 204 207 212 213 211 210 210 211 214 215 214 211 207 205 209 207 203 204 205 201 198 197 196 197 198 198 198 198 198 197 198 201 202 202 201 201 202 202 201 202 204 205 205 205 205 206 207 208 210 212 213 215 216 217 217 218 218 219 220 221 222 223 224 226 227 228 230 231 232
207 209 211 208 207 210 215 217 209 202 205 208 206 207 209 205 200 199 202 209 212 211 211 212 214 215 214 213 209 204 201 202 199 196 199 203 204 205 203 200 198 197 196 196 197 197 197 198 201 202 202 201 201 202 202 202 203 204 204 205 206 206 206 208 209 210 212 214 215 216 217 218 218 219 220 221 222 224 225 226 227 228 230 231 232 233
206 207 208 206 206 210 213 209 199 196 203 204 201 204 206 201 198 198 200 204 209 211 213 214 216 214 210 209 209 204 199 194 188 188 196 202 205 205 203 200 198 195 194 194 194 195 196 197 199 200 200 200 200 200 201 201 201 201 203 205 206 206 207 208 210 211 213 214 215 216 217 218 219 220 221 222 223 225 225 227 228 230 231 232 233 234
205 205 205 206 206 205 206 203 197 198 205 205 202 205 206 201 201 202 201 203 208 210 212 214 217 215 210 208 209 208 203 193 187 195 205 204 202 201 200 198 195 192 191 191 191 192 194 196 196 196 197 198 199 200 200 200 199 200 202 204 205 206 208 209 210 212 214 215 216 217 218 219 220 221 222 223 224 225 226 227 228 230 231 233 234 235
202 202 202 203 202 201 203 205 202 201 204 203 202 204 205 205 206 204 202 203 205 207 210 212 214 215 214 212 211 212 210 199 197 208 212 204 199 196 192 191 189 186 186 187 189 190 191 193 194 193 194 197 198 200 201 200 200 201 203 205 206 208 210 211 212 213 214 215 217 218 219 220 221 222 223 224 224 226 227 227 229 230 231 232 234 235
200 200 200 201 201 201 201 202 201 200 200 202 206 207 206 208 207 203 201 201 202 206 208 208 208 210 212 213 213 214 211 202 202 210 211 205 201 193 183 182 181 180 181 184 186 187 188 190 191 191 193 195 198 201 202 202 204 205 206 207 208 209 211 213 215 216 216 217 218 220 220 221 222 224 225 226 226 227 228 229 230 230 231 232 233 234
199 200 200 202 204 203 200 199 200 200 200 206 213 213 212 209 204 199 197 198 201 206 208 206 204 205 207 209 211 210 204 199 200 206 206 202 199 191 182 179 176 175 177 179 182 184 185 187 188 189 191 193 197 201 202 204 206 207 208 209 211 212 214 216 217 218 219 220 221 222 222 223 224 225 226 227 228 229 230 231 232 232 233 234 234 234
199 200 200 201 203 202 200 200 201 200 203 213 218 218 217 210 200 195 195 199 204 208 208 205 203 202 203 206 207 205 201 198 199 201 200 198 194 189 184 180 179 178 176 176 177 178 180 183 185 188 191 193 196 199 201 204 205 207 209 212 214 216 218 219 221 222 222 222 223 224 224 224 224 225 227 228 229 230 232 233 233 234 235 235 236 236
199 199 198 199 201 201 199 200 202 199 202 213 221 222 217 205 195 192 194 198 205 207 205 204 202 202 203 203 202 200 196 193 192 192 193 193 190 187 184 183 183 183 181 181 180 178 178 180 183 186 190 193 196 198 200 203 205 207 211 214 217 220 222 223 224 224 224 224 225 225 225 225 225 226 227 228 230 231 232 233 234 234 235 236 237 238
198 199 197 196 199 199 198 199 201 198 198 208 219 219 207 194 189 191 193 196 202 202 198 198 198 199 201 199 196 193 189 185 184 185 187 189 188 186 185 184 183 183 183 184 183 181 181 181 182 184 188 193 196 198 200 202 204 207 209 211 216 220 222 224 225 225 225 225 226 227 227 227 227 227 228 229 230 231 232 233 234 235 235 236 238 239
197 198 197 196 196 197 197 197 198 197 198 204 211 206 194 187 187 191 193 195 197 195 192 192 191 192 195 194 191 188 185 182 183 184 185 186 186 184 183 182 183 183 184 183 182 182 183 183 184 186 188 192 195 197 199 201 204 208 211 213 217 220 221 223 224 225 226 227 227 228 229 229 230 230 230 231 231 232 233 234 235 235 236 237 238 240
192 196 198 196 195 196 196 195 197 199 199 199 197 190 186 185 185 186 187 190 193 192 190 190 189 188 190 192 190 188 185 184 186 187 187 187 186 185 184 183 183 184 184 184 184 183 183 184 186 187 189 193 196 199 202 204 207 212 217 221 224 224 224 225 225 225 226 228 229 230 230 231 232 232 233 233 233 233 234 235 235 237 238 239 239 241
190 195 197 197 196 198 197 195 196 198 196 193 189 184 183 184 183 181 182 185 188 190 190 190 190 189 189 190 191 191 191 190 189 189 188 187 187 187 187 186 186 185 186 187 188 187 186 186 188 190 193 196 199 203 207 209 211 216 222 226 229 229 229 230 229 228 229 230 231 232 232 233 233 234 235 235 236 236 237 237 238 239 240 241 241 242
194 196 196 197 199 199 196 193 195 199 197 193 189 185 184 186 186 186 186 184 185 187 189 190 190 189 188 189 191 194 196 195 192 191 190 189 189 189 189 189 189 188 189 191 193 194 193 192 193 195 198 202 205 208 213 216 218 221 226 229 231 232 233 234 233 233 233 233 233 234 234 235 235 236 237 237 238 239 240 240 241 241 242 243 243 243
195 196 195 198 200 199 196 195 198 201 198 194 191 188 188 190 191 191 191 188 185 186 188 189 190 189 187 186 188 193 197 197 194 193 193 193 193 194 194 194 194 194 194 196 199 200 200 200 201 203 205 209 213 215 219 222 225 228 230 232 234 235 236 236 236 236 235 235 234 234 234 234 235 236 236 237 238 239 240 241 242 242 242 243 244 244
201 203 200 202 202 200 201 202 203 204 201 195 193 194 194 194 195 194 194 193 190 188 188 189 189 190 189 188 189 192 195 196 196 195 196 197 197 198 199 199 199 200 201 202 203 205 205 206 208 210 212 215 218 221 224 227 231 234 236 237 238 238 238 238 238 239 238 237 236 235 235 234 234 234 235 237 238 239 241 242 243 243 243 244 244 244
206 208 206 210 208 204 203 204 205 207 203 197 195 198 199 200 203 202 200 199 195 191 190 191 190 191 192 192 193 194 196 196 197 197 197 198 199 200 201 202 203 204 205 207 209 211 212 213 215 217 219 221 222 225 229 233 237 240 242 243 243 242 241 240 240 240 241 240 238 237 236 235 235 235 236 237 238 240 241 242 243 244 243 244 244 244
205 210 212 215 212 206 204 205 207 209 209 208 207 207 205 207 210 210 209 209 204 198 196 196 196 196 196 196 197 198 199 199 200 199 198 199 200 201 203 205 206 207 209 211 213 215 218 220 221 223 224 226 227 228 231 235 242 247 248 246 245 243 242 242 242 242 242 240 239 237 235 234 234 234 235 236 237 239 241 242 244 244 243 243 244 245
208 217 219 220 217 213 212 216 217 215 215 217 217 214 212 214 217 217 215 214 213 208 203 200 201 203 203 202 201 201 202 204 204 203 202 202 203 204 205 207 209 211 213 215 216 218 221 224 225 225 227 230 231 232 234 239 245 250 251 248 246 244 243 243 243 242 241 239 238 236 234 232 232 232 233 234 235 237 239 241 242 243 243 243 243 244